STARLINK-32637, 62032

Orbit data source: Space-Track

STARLINK-32637, 62032 is a payload satellite owned by SpaceX/Seattle (US) in LEO that was launched on Thu, 21 Nov 2024 UTC via an FALCON 9 launch vehicle from the Air Force Eastern Test Range (AFETR). Payload-class satellites include a variety of spacecraft equipped with specific instruments for various scientific and technological missions. These include communications satellites like Starlink; space stations such as the ISS; scientific satellites like the Hubble; Earth observation satellites from companies like Planet Labs, Umbra, and HawkEye 360; GPS; miniature CubeSats for education and research; and military/defense satellites.

Loading next visibility...
Identifier
62032, 2024-216A
Orbit
LEO
Last TLE update
9 hours ago
Origin
Manufacturer
SpaceX/Seattle
Mission
Operational Commercial Communications
Bus & Motor
STARLINK V2M, Unknown motor
Mass
730 kg wet, ~700 kg dry
Launch date (UTC)
2024-11-21 (8 months ago)
Launch vehicle
FALCON 9
Launch site
Air Force Eastern Test Range (AFETR)
Object type
Payload
Rocket body
Debris
Shape & HBR
Box + 2 Pan, 29 m
Radar Cross Section
36.964 m², Large (>1 m²)

Expand to show TLE details & history

TLE from 9 hours ago
0 STARLINK-32637
1 62032U 24216A   25189.91668981  .00028679  00000-0  10482-2 0  9990
2 62032  42.9990 192.6332 0001361 289.7871 238.1416 15.27562907  5955
Epoch: 2025-07-08T22:00Z
TLE epoch observation values (Epoch: 2025-07-08T22:00:01.999Z)
Latitude
8.20059°
Longitude
106.67904°
Altitude
482.676 km
Speed
7.626 km/s
True Right ascension
00h 15m 10s
True Declination
8° 09' 01"
Sunlit
Object was in daylight at epoch
Visualization orbit readout
Latitude
26.88131°
Longitude
80.60769°
Altitude
483.974 km
Speed
7.627 km/s
Apparent Right ascension
02h 00m 08s
Apparent Declination
-12° 28' 31"
Sunlit
Object is in partial shadow
Visualization observer readout
Local Sidereal Time
19:26:47
Azimuth
94.428° ESE
Elevation
-14.314°
Doppler factor
1
Orbital elements
Apogee altitude
485.98 km
Perigee altitude
484.112 km
Semi-major axis
6,863.183 km
Eccentricity
0.00014
Inclination
42.999°
RAAN
192.6332°
Arg. of periapsis
289.7871°
True anomaly
Unknown
Mean anomaly
238.1416°
Eccentric anomaly
Unknown
Mean motion
3.81729 °/min
Orbital period
94.31 mins
BSTAR
0.0010482
Loading maneuver chart data...
Loading SW <> Apogee altitude chart data...
Loading historical data...
Loading historical data...
Loading historical data...
Loading historical data...
Loading historical data...
Loading historical data...
Loading historical data...

STARLINK-32637 Visibility forecast

Observer location: undefined°, undefined°

Span
Click to sort rows by Start time (UTC) header in descending order
Start Az.
Max El. time (UTC)
Max El. Az.
Max El.
End time (UTC)
End Az.
6 mins2025-07-09 08:42:18.883Z283.268° WNW2025-07-09 08:45:18.883Z203.917° SW42.143°2025-07-09 08:48:18.883Z123.48° SE
5 mins2025-07-10 03:18:18.883Z209.769° SW2025-07-10 03:20:18.883Z156.762° SSE32.174°2025-07-10 03:23:18.883Z85.452° E
5 mins2025-07-10 04:57:18.883Z271.288° WNW2025-07-10 04:59:18.883Z349.295° N42.359°2025-07-10 05:02:18.883Z69.014° E
5 mins2025-07-10 06:36:18.883Z294.958° NW2025-07-10 06:38:18.883Z351.794° N38.73°2025-07-10 06:41:18.883Z80.731° E
|